Saint Martin Island, Sint Maarten

4:31 AM AST on February 26, 2017 (GMT -0400)
Princess Juliana International

Weather History for TNCM - December, 2013

Change the Weather History Date:

Tuesday, December 24, 2013

  Actual Average Record
Temperature  
Mean Temperature 77 °F -  
Max Temperature 81 °F 81 °F 98 °F (1997)
Min Temperature 73 °F 72 °F 71 °F (2007)
Cooling Degree Days 12    
Growing Degree Days 27 (Base 50)    
Moisture  
Dew Point 71 °F    
Average Humidity 78    
Maximum Humidity 89    
Minimum Humidity 68    
Precipitation  
Precipitation 0.08 in 0.09 in - ()
Sea Level Pressure  
Sea Level Pressure 29.95 in    
Wind  
Wind Speed 12 mph ()    
Max Wind Speed 22 mph    
Max Gust Speed 37 mph    
Visibility 7.7 miles    
Events Rain , Thunderstorm    
Averages and records for this station are not official NWS values.
T = Trace of Precipitation, MM = Missing Value Source: Averaged Metar Reports

Daily Weather History Graph

Daily Weather History Graph

Search for Another Location

Airport or City:

Trip Planner

Search our weather history database for the weather conditions in past years. The results will help you decide how hot, cold, wet, or windy it might be!

Date:

Astronomy

Dec. 24, 2013 Rise Set
Actual Time 6:40 AM AST 5:43 PM AST
Civil Twilight 6:16 AM AST 6:07 PM AST
Nautical Twilight 5:49 AM AST 6:34 PM AST
Astronomical Twilight 5:22 AM AST 7:01 PM AST
Moon 11:51 PM AST (12/24) 11:24 AM AST (12/24)
Length of Visible Light 11h 50m
Length of Day
11h 03m
Waning Gibbous, 59% of the Moon is Illuminated
Dec 24
Waning Gibbous
Dec 25
Last Quarter
Jan 1
New
Jan 7
First Quarter
Jan 16
Full

Hourly Weather History & Observations

Time (AST) Temp. Heat Index Dew Point Humidity Pressure Visibility Wind Dir Wind Speed Gust Speed Precip Events Conditions
12:00 AM 75.2 °F - 69.8 °F 83% 29.95 in 6.2 mi ENE 21.9 mph 36.8 mph N/A   Scattered Clouds
1:00 AM 77.0 °F - 68.0 °F 74% 29.95 in 6.2 mi East 19.6 mph 31.1 mph N/A   Partly Cloudy
2:00 AM 77 °F - 70 °F 74% 29.94 in 16 mi ENE 18.4 mph - -   Partly Cloudy
2:00 AM 77.0 °F - 69.8 °F 78% 29.92 in 6.2 mi ENE 18.4 mph - N/A   Scattered Clouds
3:00 AM 77.0 °F - 71.6 °F 83% 29.92 in 6.2 mi East 11.5 mph - N/A   Partly Cloudy
4:00 AM 77.0 °F - 69.8 °F 78% 29.92 in 6.2 mi East 9.2 mph - N/A   Partly Cloudy
5:00 AM 77 °F - 70 °F 74% 29.91 in 16 mi East 9.2 mph - -   Scattered Clouds
5:00 AM 77.0 °F - 69.8 °F 78% 29.92 in 6.2 mi East 9.2 mph - N/A   Partly Cloudy
6:00 AM 77.0 °F - 71.6 °F 83% 29.92 in 6.2 mi East 9.2 mph - N/A   Scattered Clouds
7:00 AM 78.8 °F - 68.0 °F 69% 29.92 in 6.2 mi SE 11.5 mph - N/A   Partly Cloudy
8:00 AM 78 °F - 71 °F 72% 29.96 in 28 mi East 10.4 mph - -   Partly Cloudy
8:00 AM 78.8 °F - 69.8 °F 74% 29.95 in 6.2 mi East 10.4 mph - N/A   Partly Cloudy
9:00 AM 80.6 °F 84.6 °F 71.6 °F 74% 29.98 in 6.2 mi ESE 13.8 mph - N/A   Partly Cloudy
10:00 AM 80.6 °F 84.6 °F 71.6 °F 74% 29.98 in 6.2 mi ESE 11.5 mph - N/A   Partly Cloudy
11:00 AM 80 °F - 72 °F 71% 29.99 in 25 mi SE 15.0 mph - -   Scattered Clouds
11:00 AM 80.6 °F 84.6 °F 71.6 °F 74% 29.98 in 6.2 mi SE 15.0 mph - N/A   Partly Cloudy
12:00 PM 80.6 °F 84.6 °F 71.6 °F 74% 29.95 in 6.2 mi ESE 15.0 mph - N/A   Partly Cloudy
1:00 PM 80.6 °F 84.6 °F 71.6 °F 74% 29.92 in 6.2 mi ESE 11.5 mph - N/A   Partly Cloudy
2:00 PM 81 °F - 72 °F 68% 29.92 in 16 mi ESE 12.7 mph - -   Scattered Clouds
2:00 PM 80.6 °F 84.6 °F 71.6 °F 74% 29.92 in 6.2 mi ESE 12.7 mph - N/A   Partly Cloudy
2:47 PM 78.8 °F - 71.6 °F 78% 29.92 in 6.2 mi ESE 13.8 mph - N/A Rain Rain Showers
3:00 PM 77.0 °F - 71.6 °F 83% 29.92 in 6.2 mi ESE 12.7 mph - N/A Rain Light Rain Showers
4:00 PM 78.8 °F - 71.6 °F 78% 29.92 in 6.2 mi ESE 8.1 mph - N/A Rain Light Rain Showers
5:00 PM 79 °F - 72 °F 72% 29.93 in 16 mi SE 12.7 mph - - Rain Light Rain Showers
5:00 PM 78.8 °F - 71.6 °F 78% 29.92 in 6.2 mi SE 12.7 mph - N/A   Scattered Clouds
6:00 PM 78.8 °F - 71.6 °F 78% 29.92 in 6.2 mi SE 13.8 mph - N/A   Scattered Clouds
7:00 PM 78.8 °F - 71.6 °F 78% 29.92 in 6.2 mi ESE 9.2 mph - N/A   Partly Cloudy
8:00 PM 78 °F - 71 °F 74% 29.96 in 12 mi ESE 9.2 mph - -   Mostly Cloudy
8:00 PM 78.8 °F - 71.6 °F 78% 29.95 in 6.2 mi ESE 9.2 mph - N/A Rain Light Rain Showers
8:06 PM 75.2 °F - 69.8 °F 83% 29.95 in 2.5 mi SE 13.8 mph - N/A Rain Rain Showers
8:35 PM 75.2 °F - 71.6 °F 89% 29.98 in 6.2 mi ESE 9.2 mph - N/A   Mostly Cloudy
8:46 PM 75.2 °F - 69.8 °F 83% 29.98 in 6.2 mi East 6.9 mph - N/A Thunderstorm Thunderstorm
9:00 PM 75.2 °F - 69.8 °F 83% 29.98 in 6.2 mi Variable 3.5 mph - N/A Thunderstorm Thunderstorm
9:20 PM 75.2 °F - 71.6 °F 89% 29.98 in 6.2 mi Variable 1.2 mph - N/A   Mostly Cloudy
10:00 PM 78.8 °F - 73.4 °F 83% 29.98 in 6.2 mi Variable 4.6 mph - N/A   Mostly Cloudy
11:00 PM 76 °F - 71 °F 78% 29.98 in 19 mi 3.5 mph - - Rain Light Rain Showers
11:00 PM 75.2 °F - 69.8 °F 83% 29.98 in 6.2 mi Variable 3.5 mph - N/A   Scattered Clouds